Location: Newark
(47.5000°N, 4.6167°E)
Time: 07:36:50
(UTC+00:00)

X-37B - Visible Passes

Search period start: 07 December 2021 00:00
Search period end: 17 December 2021 00:00
Orbit: 330 x 341 km, 45.0° (Epoch: 20 November)

Date Brightness Start Highest point End Pass type
(mag) Time Alt. Az. Time Alt. Az. Time Alt. Az.
07 Dec 2.8 17:16:15 10° S 17:17:32 12° SSE 17:18:08 12° SE visible
08 Dec 2.0 17:35:20 10° SSW 17:37:41 23° SSE 17:37:44 23° SSE visible
09 Dec 1.8 17:55:15 10° SW 17:57:18 32° SSW 17:57:18 32° SSW visible
10 Dec 2.2 16:40:46 10° SSW 16:43:07 23° SSE 16:45:28 10° ESE visible
10 Dec 2.7 18:15:29 10° WSW 18:16:51 24° WSW 18:16:51 24° WSW visible
11 Dec 1.4 17:00:41 10° SW 17:03:23 36° SSE 17:05:09 17° ESE visible
11 Dec 3.7 18:35:51 10° W 18:36:23 14° WSW 18:36:23 14° WSW visible
12 Dec 0.9 17:20:55 10° WSW 17:23:42 49° S 17:24:42 31° ESE visible
13 Dec 0.8 17:41:16 10° W 17:44:05 50° S 17:44:16 49° SSE visible
14 Dec 1.1 16:26:20 10° WSW 16:29:08 49° S 16:31:56 10° E visible
14 Dec 1.8 18:01:42 10° W 18:03:53 34° SW 18:03:53 34° SW visible
15 Dec 1.0 16:46:42 10° W 16:49:31 50° S 16:52:18 10° ESE visible
15 Dec 3.1 18:22:16 10° WSW 18:23:36 19° WSW 18:23:36 19° WSW visible
16 Dec 1.5 17:07:08 10° W 17:09:51 39° SSW 17:12:10 13° SE visible
16 Dec 4.0 18:43:20 10° WSW 18:43:24 10° WSW 18:43:24 10° WSW visible
